{"data":{"norad_id":45361,"epoch":"2026-05-25T02:51:19.174752Z","epoch_age_seconds":64698,"freshness":"FRESH","line1":"1 45361U 20019B   26145.11897193  .00079851  00000+0  53262-3 0  9998","line2":"2 45361  53.0369  86.1857 0006168  85.9818 274.1905 15.74669358342610","mean_motion":15.74669358,"eccentricity":0.0006168,"inclination_deg":53.0369,"raan_deg":86.1857,"arg_perigee_deg":85.9818,"mean_anomaly_deg":274.1905,"bstar":0.00053262,"rev_number":34261,"period_min":91.447769189397,"perigee_km":341.4250424085,"apogee_km":349.71941011001,"semimajor_km":6723.7092262593,"source":"CELESTRAK","updated_at":"2026-05-25T13:38:16.386739Z"}}